Flag for Germany Weather past 2 weeks in Achern, Baden-Württemberg, Germany

Now
27 °F

Partly sunny.


Feels Like: 13 °F
Forecast: 17 / 33 °F
Wind: 20 mph from Northeast

Location: Karlsruhe - Baden Wurttemberg

Current Time: Dec 28, 2014 at 1:27:30 PM

Latest Report: Dec 28, 2014 at 12:50 PM


Visibility: 5 mi

Pressure: 30.09 "Hg

Humidity: 80%

Dew point: 21 °F

Location of AchernLocation

Historic Weather in Achern — Graph

°F

Achern temperature yesterday

Maximum temperature yesterday: 39 °F (at 12:20 PM)
Minimum temperature yesterday: 32 °F (at 6:20 AM)
Average temperature yesterday: 36 °F

Past Weeks' High & Low Weather Summary

 TemperatureHumidityPressure
High54 °F (Dec 18, 5:50 PM)100% (Dec 14, 3:20 PM)30.54 "Hg (Dec 14, 3:20 PM)
Low27 °F (Dec 28, 9:50 AM)50% (Dec 15, 2:50 PM)29.39 "Hg (Dec 27, 4:50 PM)
Average43 °F80%30.12 "Hg
* Reported Dec 13 12:20 PM — Dec 28 12:20 PM, Achern, Weather by CustomWeather, © 2014

Note: Actual official high and low records may vary slightly from our data, if they occured in-between our weather recording intervals... More about our weather records

Advertising

Achern weather history for previous 24 hours

 ConditionsComfort  
Time TempWeatherWind HumidityBarometerVisibility
12:20 PM
Dec 28
27 °FBroken clouds.17 mph86%30.07 "Hg4 mi
11:50 AM27 °FLight snow. Ice fog.21 mph86%30.07 "Hg2 mi
11:20 AM27 °FSnow. Ice fog.21 mph93%30.04 "Hg1 mi
10:50 AM27 °FSnow. Ice fog.21 mph93%30.01 "Hg1 mi
10:20 AM27 °FSnow. Ice fog.18 mph93%29.98 "Hg1 mi
9:50 AM27 °FLight snow. Broken clouds.21 mph93%29.95 "Hg3 mi
9:20 AM28 °FLight snow. Broken clouds.21 mph86%29.92 "Hg4 mi
8:50 AM28 °FLight snow. Broken clouds.21 mph86%29.89 "Hg5 mi
8:20 AM28 °FLight snow. Broken clouds.20 mph93%29.86 "Hg6 mi
7:50 AM28 °FPartly cloudy.16 mph93%29.83 "Hg6 mi
7:20 AM28 °FSnow. Partly cloudy.16 mph93%29.80 "Hg5 mi
6:50 AM30 °FLight snow. Partly cloudy.20 mph80%29.77 "HgN/A
6:20 AM30 °FSnow. Passing clouds.20 mph86%29.74 "Hg4 mi
5:50 AM30 °FPassing clouds.18 mph86%29.71 "HgN/A
5:20 AM30 °FPassing clouds.17 mph86%29.71 "HgN/A
10:50 PM
Dec 27
34 °FLight snow. Partly cloudy.9 mph93%29.47 "Hg5 mi
10:20 PM32 °FLight snow. Partly cloudy.9 mph100%29.47 "Hg4 mi
9:50 PM34 °FLight snow. Partly cloudy.9 mph93%29.45 "Hg5 mi
9:20 PM32 °FLight snow. Partly cloudy.7 mph100%29.45 "Hg5 mi
8:50 PM34 °FSnow. Passing clouds.8 mph93%29.45 "Hg4 mi
8:20 PM36 °FRain. Passing clouds.13 mph93%29.42 "Hg4 mi
7:50 PM36 °FRain. Passing clouds.10 mph93%29.42 "Hg4 mi
7:20 PM36 °FRain. Passing clouds.14 mph93%29.42 "Hg4 mi
6:50 PM37 °FRain. Passing clouds.20 mph87%29.39 "Hg4 mi
6:20 PM37 °FRain. Passing clouds.22 mph93%29.39 "Hg4 mi
5:50 PM37 °FRain. Passing clouds.22 mph93%29.39 "Hg4 mi
5:20 PM37 °FRain. Passing clouds.21 mph93%29.39 "Hg4 mi
4:50 PM37 °FRain. Passing clouds.22 mph93%29.39 "Hg4 mi
4:20 PM37 °FRain. Partly sunny.21 mph93%29.42 "Hg4 mi
3:50 PM37 °FRain. Partly sunny.17 mph93%29.42 "Hg4 mi
3:20 PM39 °FRain. Partly sunny.22 mph87%29.42 "Hg4 mi
2:50 PM39 °FRain. Partly sunny.17 mph87%29.42 "Hg4 mi
2:20 PM39 °FLight rain. Broken clouds.20 mph87%29.45 "HgN/A
1:50 PM39 °FLight rain. Broken clouds.16 mph87%29.45 "HgN/A
1:20 PM39 °FLight rain. Broken clouds.16 mph87%29.45 "HgN/A
Weather by CustomWeather, © 2014

See weather overviewHow to use our weather pages